Location: Chevoux
(46.3801°N, 4.9476°E)
Time: 17:25:49
(UTC+00:00)

X-37B - Pass Details

Date: 09 December 2021
Orbit: 334 x 337 km, 45.0° (Epoch: 11 January)

Event Time Altitude Azimuth Distance (km) Brightness Sun altitude
Rises 17:53:06 0° 248° (WSW) 2,099 5.8 -19.7°
Reaches altitude 10° 17:55:08 10° 242° (WSW) 1,264 4.3 -20.1°
Enters shadow 17:57:14 38° 210° (SSW) 531 1.5 -20.4°
